Regional Weather Roundup
Issued by NWS Green Bay, WI

Home | Current Version | Previous Version | Text Only | Print | Product List | Glossary On
Versions: 1 2 3 4 5 6 7 8 9 10 11 12 13 14 15 16 17 18 19 20 21 22 23 24 25 26 27 28 29 30 31 32 33 34 35 36 37 38 39 40 41 42 43 44 45 46 47 48 49 50
000
ASUS43 KGRB 230311
RWRGRB

NORTH-CENTRAL AND NORTHEAST WISCONSIN REGIONAL WEATHER ROUNDUP
NATIONAL WEATHER SERVICE GREEN BAY WI
900 PM CST WED FEB 22 2017

WIZ005-009-010>012-018-019-230400-
NORTH CENTRAL WISCONSIN

CITY           SKY/WX    TMP DP  RH WIND       PRES   REMARKS
IRONWOOD       CLOUDY    34  33  96 NE8       29.63F
MANITOWISH WTR RAIN      37  37 100 NE9       29.58S
ARBOR VITAE    FOG       42  41  97 NE6         N/A  VSB 1
EAGLE RIVER    FOG       39  39 100 N7        29.57R VSB 1/2
LAND O LAKES   CLOUDY    39  39 100 N8        29.60R FOG
RHINELANDER    FOG       41  41 100 N5        29.55S VSB 1/4
PHILLIPS       FOG       41  41 100 NW6       29.57R VSB 3/4
ANTIGO         CLEAR     34  33  96 CALM      29.56R
TOMAHAWK         N/A     39  38  94 CALM      29.56S FOG
MERRILL        NOT AVBL
$$

WIZ013-073-230400-
NORTHEAST WISCONSIN

CITY           SKY/WX    TMP DP  RH WIND       PRES   REMARKS
IRON MOUNTAIN  CLOUDY    42  39  89 N6        29.55F FOG
MARINETTE      CLOUDY    40  38  93 E5        29.55F
OCONTO         PTCLDY    40  38  94 NE3       29.54F
$$

WIZ017-030-035>037-045-230400-
CENTRAL WISCONSIN

CITY           SKY/WX    TMP DP  RH WIND       PRES   REMARKS
MEDFORD        PTCLDY    35  34  96 CALM      29.55S FOG
WAUSAU         PTCLDY    41  37  86 CALM      29.55R
MOSINEE        CLEAR     43  39  87 CALM      29.56R
MARSHFIELD     CLEAR     42  38  85 W5        29.55R
WISC RAPIDS    CLEAR     37  34  89 CALM      29.57R
STEVENS POINT  CLEAR     36  33  90 CALM      29.56R
WAUPACA        CLEAR     44  37  76 CALM      29.54S
SHAWANO        CLOUDY    45  38  76 CALM      29.55R
CLINTONVILLE   PTCLDY    43  36  75 NW3       29.54S
WAUTOMA        CLEAR     38  35  89 CALM      29.55S
$$

WIZ038-039-048-051-230400-
FOX VALLEY

CITY           SKY/WX    TMP DP  RH WIND       PRES   REMARKS
NWS GREEN BAY  CLEAR     45  44  97 W3        29.52F
APPLETON       MOCLDY    50  39  66 VRB5      29.52S
OSHKOSH        MOCLDY    50  43  77 CALM      29.52F
FOND DU LAC    CLOUDY    54  41  61 CALM      29.54R
$$

WIZ022-050-052-230400-
EAST CENTRAL WISCONSIN

CITY           SKY/WX    TMP DP  RH WIND       PRES   REMARKS
EPHRAIM        FOG       38  38 100 N7        29.54R VSB 1/4
WASHINGTON ISL FOG       37  37 100 N5        29.56F VSB 1/2
STURGEON BAY   FOG       39  39 100 NE3       29.53F VSB 1/4
MANITOWOC      MOCLDY    41  39  93 E3        29.52F FOG
SHEBOYGAN      CLEAR     43  41  93 CALM      29.53S
$$

LMZ563-521-522-541>543-230400-
LAKESHORE

STATION/POSITION TIME  TEMP    WIND        PRES    VSBY  WAVE
                       AIR SEA DIR/SP/G                  HT/PER
                 (UTC) (F)     (DEG/KT/KT) (MB)    (MI)  (FT/S)
SHEBOYGAN LKSHOR 0300   47     170/  2/  3 1000.2R
KEWAUNEE LKSHORE 0218   37      CALM  /  7 1000.0F
NORTHPORT PIER   0240   36      CALM  /  7 1001.4R
SISTER BAY LKSHO 0235   39     150/  3/  8   N/A
CHAMBERS ISLAND  0240   35     340/ 10/ 11 1001.0S
MENOMINEE LKSHOR 0248   38     330/  9/ 10 1000.2R
$$



USA.gov is the U.S. government's official web portal to all federal, state and local government web resources and services.